• In Czech Republic
  • List of Countries
  • For 7 days
  • Water Temperature
  • Satellite Maps
  • Weather Map
  • Weather Widgets
  • user-avatar
    Login

    Hourly Weather Viedma

    Today, 28 May, Monday

    Time Temperature Precipitation Wind Pressure Humidity
    00:00 +14°C° 0 mm 6 mps 754 mmHg 53%
    01:00 +15°C° 0 mm 6 mps 754 mmHg 55%
    02:00 +15°C° 0 mm 6 mps 754 mmHg 58%
    03:00 +14°C° 0 mm 6 mps 753 mmHg 63%
    04:00 +14°C° 0 mm 5 mps 753 mmHg 68%
    05:00 +14°C° 0 mm 5 mps 753 mmHg 73%
    06:00 +14°C° 0 mm 5 mps 753 mmHg 76%
    07:00 +14°C° 0 mm 5 mps 753 mmHg 79%
    08:00 +14°C° 0 mm 5 mps 753 mmHg 82%
    09:00 +15°C° 0 mm 5 mps 753 mmHg 74%
    10:00 +16°C° 0 mm 6 mps 753 mmHg 65%
    11:00 +17°C° 0 mm 6 mps 754 mmHg 57%
    12:00 +17°C° 0 mm 7 mps 754 mmHg 49%
    13:00 +18°C° 0 mm 8 mps 753 mmHg 41%
    14:00 +18°C° 0 mm 9 mps 753 mmHg 33%
    15:00 +17°C° 0 mm 7 mps 754 mmHg 35%
    16:00 +16°C° 0 mm 6 mps 754 mmHg 36%
    17:00 +15°C° 0 mm 4 mps 754 mmHg 38%
    18:00 +15°C° 0 mm 4 mps 755 mmHg 39%
    19:00 +14°C° 0 mm 3 mps 755 mmHg 41%
    20:00 +14°C° 0 mm 3 mps 755 mmHg 42%
    21:00 +13°C° 0 mm 3 mps 755 mmHg 44%
    22:00 +14°C° 0 mm 2 mps 755 mmHg 46%
    23:00 +13°C° 0 mm 2 mps 756 mmHg 48%

    Tomorrow, 29 May, Tuesday

    Time Temperature Precipitation Wind Pressure Humidity
    00:00 +13°C° 0 mm 2 mps 756 mmHg 47%
    01:00 +14°C° 0 mm 2 mps 756 mmHg 46%
    02:00 +13°C° 0 mm 3 mps 756 mmHg 44%
    03:00 +12°C° 0.4 mm 4 mps 756 mmHg 52%
    04:00 +12°C° 0.4 mm 5 mps 756 mmHg 59%
    05:00 +11°C° 0.4 mm 6 mps 755 mmHg 66%
    06:00 +10°C° 0.4 mm 5 mps 756 mmHg 70%
    07:00 +11°C° 0.4 mm 4 mps 756 mmHg 74%
    08:00 +11°C° 0.4 mm 3 mps 757 mmHg 79%
    09:00 +11°C° 0.2 mm 3 mps 757 mmHg 77%
    10:00 +13°C° 0.2 mm 2 mps 757 mmHg 76%
    11:00 +13°C° 0.2 mm 1 mps 757 mmHg 75%
    12:00 +13°C° 0.9 mm 2 mps 756 mmHg 76%
    13:00 +11°C° 0.9 mm 3 mps 756 mmHg 77%
    14:00 +11°C° 0.9 mm 4 mps 756 mmHg 79%
    15:00 +11°C° 0.1 mm 4 mps 756 mmHg 78%
    16:00 +11°C° 0.1 mm 4 mps 756 mmHg 77%
    17:00 +11°C° 0.1 mm 4 mps 757 mmHg 77%
    18:00 +11°C° 0 mm 4 mps 757 mmHg 76%
    19:00 +11°C° 0 mm 4 mps 758 mmHg 76%
    20:00 +10°C° 0 mm 4 mps 758 mmHg 75%
    21:00 +10°C° 0 mm 4 mps 759 mmHg 73%
    22:00 +10°C° 0 mm 4 mps 759 mmHg 70%
    23:00 +9°C° 0 mm 5 mps 760 mmHg 67%

    Day after tomorrow, 30 May, Wednesday

    Time Temperature Precipitation Wind Pressure Humidity
    00:00 +9°C° 0 mm 5 mps 760 mmHg 64%
    01:00 +9°C° 0 mm 5 mps 760 mmHg 61%
    02:00 +8°C° 0 mm 5 mps 761 mmHg 59%
    03:00 +8°C° 0 mm 5 mps 761 mmHg 59%
    04:00 +8°C° 0 mm 5 mps 761 mmHg 59%
    05:00 +8°C° 0 mm 5 mps 761 mmHg 60%
    06:00 +8°C° 0 mm 5 mps 762 mmHg 61%
    07:00 +8°C° 0 mm 5 mps 762 mmHg 62%
    08:00 +8°C° 0 mm 5 mps 762 mmHg 64%
    09:00 +9°C° 0 mm 6 mps 763 mmHg 60%
    10:00 +10°C° 0 mm 7 mps 763 mmHg 57%
    11:00 +11°C° 0 mm 7 mps 764 mmHg 54%
    12:00 +11°C° 0 mm 8 mps 764 mmHg 56%
    13:00 +11°C° 0 mm 8 mps 764 mmHg 59%
    14:00 +11°C° 0 mm 8 mps 764 mmHg 61%
    15:00 +10°C° 0.5 mm 8 mps 765 mmHg 64%
    16:00 +8°C° 0.5 mm 9 mps 765 mmHg 67%
    17:00 +7°C° 0.5 mm 9 mps 766 mmHg 69%
    18:00 +6°C° 0.1 mm 8 mps 766 mmHg 69%
    19:00 +6°C° 0.1 mm 8 mps 767 mmHg 68%
    20:00 +6°C° 0.1 mm 7 mps 767 mmHg 68%
    21:00 +5°C° 0 mm 6 mps 768 mmHg 67%
    22:00 +5°C° 0 mm 6 mps 768 mmHg 67%
    23:00 +6°C° 0 mm 5 mps 769 mmHg 67%

    31 May, Thursday

    Time Temperature Precipitation Wind Pressure Humidity
    00:00 +5°C° 0 mm 5 mps 769 mmHg 66%
    01:00 +5°C° 0 mm 4 mps 769 mmHg 66%
    02:00 +5°C° 0 mm 4 mps 769 mmHg 65%
    03:00 +5°C° 0 mm 4 mps 769 mmHg 65%
    04:00 +7°C° 0 mm 3 mps 769 mmHg 65%
    05:00 +7°C° 0 mm 3 mps 769 mmHg 64%
    06:00 +7°C° 0 mm 3 mps 769 mmHg 64%
    07:00 +7°C° 0 mm 3 mps 769 mmHg 64%
    08:00 +7°C° 0 mm 2 mps 769 mmHg 64%
    09:00 +8°C° 0 mm 2 mps 769 mmHg 60%
    10:00 +9°C° 0 mm 2 mps 769 mmHg 57%
    11:00 +9°C° 0 mm 2 mps 770 mmHg 53%
    12:00 +10°C° 0 mm 2 mps 769 mmHg 52%
    13:00 +10°C° 0 mm 2 mps 769 mmHg 51%
    14:00 +10°C° 0 mm 2 mps 768 mmHg 51%
    15:00 +10°C° 0 mm 2 mps 768 mmHg 54%
    16:00 +9°C° 0 mm 2 mps 768 mmHg 57%
    17:00 +8°C° 0 mm 2 mps 768 mmHg 60%
    18:00 +8°C° 0 mm 2 mps 768 mmHg 63%
    19:00 +8°C° 0 mm 1 mps 768 mmHg 67%
    20:00 +8°C° 0 mm 1 mps 768 mmHg 70%
    21:00 +7°C° 0 mm 1 mps 768 mmHg 72%
    22:00 +7°C° 0 mm 1 mps 768 mmHg 73%
    23:00 +7°C° 0 mm 1 mps 768 mmHg 75%

    1 June, Friday

    Time Temperature Precipitation Wind Pressure Humidity
    00:00 +6°C° 0 mm 1 mps 768 mmHg 76%
    01:00 +6°C° 0 mm 1 mps 768 mmHg 76%
    02:00 +6°C° 0 mm 1 mps 767 mmHg 76%
    03:00 +6°C° 0 mm 1 mps 767 mmHg 77%
    04:00 +5°C° 0 mm 2 mps 767 mmHg 77%
    05:00 +5°C° 0 mm 2 mps 767 mmHg 77%
    06:00 +5°C° 0 mm 2 mps 767 mmHg 77%
    07:00 +5°C° 0 mm 2 mps 767 mmHg 76%
    08:00 +5°C° 0 mm 2 mps 767 mmHg 76%
    09:00 +6°C° 0 mm 2 mps 767 mmHg 68%
    10:00 +7°C° 0 mm 3 mps 767 mmHg 61%
    11:00 +9°C° 0 mm 3 mps 767 mmHg 54%
    12:00 +9°C° 0 mm 3 mps 767 mmHg 51%
    13:00 +10°C° 0 mm 3 mps 766 mmHg 47%
    14:00 +10°C° 0 mm 3 mps 766 mmHg 44%
    15:00 +9°C° 0 mm 2 mps 766 mmHg 46%
    16:00 +8°C° 0 mm 2 mps 766 mmHg 48%
    17:00 +8°C° 0 mm 2 mps 766 mmHg 50%
    18:00 +7°C° 0 mm 2 mps 766 mmHg 51%
    19:00 +7°C° 0 mm 2 mps 767 mmHg 52%
    20:00 +6°C° 0 mm 2 mps 767 mmHg 53%
    21:00 +6°C° 0 mm 2 mps 767 mmHg 54%
    22:00 +6°C° 0 mm 2 mps 767 mmHg 54%
    23:00 +5°C° 0 mm 2 mps 767 mmHg 55%

    2 June, Saturday

    Time Temperature Precipitation Wind Pressure Humidity
    00:00 +5°C° 0 mm 2 mps 767 mmHg 55%
    01:00 +5°C° 0 mm 2 mps 768 mmHg 55%
    02:00 +5°C° 0 mm 2 mps 768 mmHg 55%
    03:00 +5°C° 0 mm 2 mps 768 mmHg 56%
    04:00 +5°C° 0 mm 2 mps 767 mmHg 57%
    05:00 +4°C° 0 mm 2 mps 767 mmHg 58%
    06:00 +4°C° 0 mm 2 mps 768 mmHg 60%
    07:00 +4°C° 0 mm 2 mps 768 mmHg 63%
    08:00 +4°C° 0 mm 2 mps 768 mmHg 65%
    09:00 +6°C° 0 mm 2 mps 768 mmHg 61%
    10:00 +8°C° 0 mm 2 mps 769 mmHg 56%
    11:00 +10°C° 0 mm 2 mps 769 mmHg 52%
    12:00 +10°C° 0 mm 2 mps 769 mmHg 50%
    13:00 +12°C° 0 mm 2 mps 768 mmHg 48%
    14:00 +12°C° 0 mm 2 mps 768 mmHg 46%
    15:00 +10°C° 0 mm 2 mps 768 mmHg 49%
    16:00 +9°C° 0 mm 2 mps 768 mmHg 52%
    17:00 +8°C° 0 mm 2 mps 769 mmHg 55%
    18:00 +8°C° 0 mm 2 mps 769 mmHg 58%
    19:00 +7°C° 0 mm 2 mps 769 mmHg 60%
    20:00 +7°C° 0 mm 2 mps 769 mmHg 62%
    21:00 +8°C° 0 mm 1 mps 770 mmHg 65%
    22:00 +7°C° 0 mm 1 mps 770 mmHg 67%
    23:00 +7°C° 0 mm 1 mps 770 mmHg 69%
    Show more